Flag for Canada Weather past 2 weeks in Laval, Quebec, Canada

Now
34 °F

Broken clouds.


Feels Like: 23 °F
Forecast: N/A
Wind: 16 mph from Southwest

Location: Montreal / Mirabel

Current Time: Mar 4, 2015 at 3:50:37 PM

Latest Report: Mar 4, 2015 at 3:00 PM


Visibility: 25 mi

Pressure: 29.69 "Hg

Humidity: 48%

Dew point: 16 °F

Location of LavalLocation

Historic Weather in Laval — Graph

°F

Laval temperature yesterday

Maximum temperature yesterday: 21 °F (at 1:00 PM)
Minimum temperature yesterday: -4 °F (at 7:00 AM)
Average temperature yesterday: 13 °F

Past Weeks' High & Low Weather Summary

 TemperatureHumidityPressure
High34 °F (Mar 4, 1:00 PM)93% (Feb 22, 9:50 PM)30.73 "Hg (Feb 22, 9:50 PM)
Low-18 °F (Feb 24, 7:00 AM)35% (Mar 2, 6:00 PM)29.54 "Hg (Mar 4, 1:00 AM)
Average8 °F64%30.10 "Hg
* Reported Feb 17 2:00 PM — Mar 4 2:00 PM, Laval, Weather by CustomWeather, © 2015

Note: Actual official high and low records may vary slightly from our data, if they occured in-between our weather recording intervals... More about our weather records

Advertising

Laval weather history for previous 24 hours

 ConditionsComfort  
Time TempWeatherWind HumidityBarometerVisibility
2:00 PM
Wed, Mar 4
34 °FSnow flurries. Partly sunny.15 mph51%29.68 "Hg25 mi
1:00 PM34 °FSnow flurries. Partly sunny.15 mph56%29.70 "Hg20 mi
12:00 PM32 °FSnow flurries. Broken clouds.13 mph64%29.72 "Hg20 mi
11:00 AM30 °FPartly sunny.13 mph69%29.71 "Hg15 mi
10:00 AM28 °FLight snow. Partly sunny.12 mph80%29.71 "Hg6 mi
9:00 AM27 °FLight snow. Partly sunny.9 mph80%29.70 "Hg8 mi
8:00 AM25 °FOvercast.9 mph80%29.68 "Hg15 mi
7:00 AM23 °FPartly sunny.8 mph86%29.66 "Hg25 mi
6:00 AM23 °FPartly cloudy.12 mph86%29.64 "Hg25 mi
5:00 AM25 °FLow clouds.14 mph86%29.61 "Hg20 mi
4:00 AM23 °FLow clouds.7 mph93%29.57 "Hg10 mi
3:00 AM23 °FLight snow. Low clouds.9 mph93%29.55 "Hg8 mi
2:00 AM23 °FLight mixture of precip. Mostly cloudy.5 mph93%29.54 "Hg6 mi
1:00 AM23 °FLight mixture of precip. Mostly cloudy.3 mph93%29.54 "Hg2 mi
12:00 AM23 °FLight snow. Mostly cloudy.3 mph93%29.55 "Hg2 mi
11:00 PM
Tue, Mar 3
21 °FLight snow. Ice fog.8 mph93%29.55 "Hg2 mi
10:00 PM21 °FLight snow. Ice fog.5 mph86%29.62 "Hg2 mi
9:00 PM19 °FLight snow. Ice fog.9 mph93%29.67 "Hg2 mi
8:00 PM19 °FLight snow. Ice fog.7 mph93%29.74 "Hg1 mi
7:00 PM19 °FLight snow. Ice fog.7 mph86%29.80 "Hg1 mi
6:00 PM21 °FMostly cloudy.7 mph49%29.88 "Hg20 mi
5:00 PM21 °FMore clouds than sun.8 mph49%29.95 "Hg25 mi
4:00 PM21 °FMostly cloudy.7 mph45%30.03 "Hg45 mi
3:00 PM21 °FCold.9 mph42%30.09 "Hg45 mi
Weather by CustomWeather, © 2015

See weather overviewHow to use our weather pages